Location: Moscow
(38.3171°N, 79.0889°W)
Time: 01:15:05
(UTC+00:00)

ARIANE 6 FM1 Upper Stage - Pass Details

Date: 07 November 2025
Orbit: 522 x 611 km, 62.0° (Epoch: 08 December)

Event Time Altitude Azimuth Distance (km) Brightness Sun altitude
Rises 22:27:54 0° 218° (SW) 2,690 7.2 -4.1°
Reaches altitude 10° 22:30:07 10° 220° (SW) 1,789 6.3 -4.5°
Maximum altitude 22:34:08 74° 306° (NW) 555 2.8 -5.3°
Drops below altitude 10° 22:38:05 10° 31° (NNE) 1,768 4.8 -6.0°
Enters shadow 22:39:59 - 33° (NNE) 2,536 5.5 -6.4°
